ECMWFNIL_850_spd_132.txt.gz
Wind_Speed
24 22 20 18 17 15 13 11 10 10 9 6 2 1 2 3 5 7 6 5 4 3 2 2 3 4 4 4 4 5 5 5 5 6 6 6 6 7 7 8 8 9
23 21 19 17 16 15 13 12 11 10 8 5 2 2 1 6 8 9 7 5 3 2 3 3 3 4 3 3 4 5 5 4 5 6 5 5 7 7 8 9 9 9
21 19 18 17 16 15 14 13 12 11 8 5 3 2 6 9 10 9 7 4 3 3 4 3 4 5 5 4 4 5 4 4 5 6 5 4 6 7 8 9 9 9
20 19 18 17 17 16 15 14 13 11 8 6 5 7 10 10 9 8 6 5 4 4 3 3 5 7 6 5 4 3 4 4 6 6 4 3 5 7 8 8 8 9
20 19 19 18 17 16 16 16 14 10 8 8 10 12 11 9 8 7 6 5 5 5 5 5 7 7 5 4 4 3 5 6 8 7 4 3 5 6 7 8 8 9
20 20 19 19 18 18 17 16 13 9 10 12 14 13 11 10 8 7 6 4 5 7 8 8 7 6 4 4 4 4 6 8 8 7 5 5 5 6 7 8 8 9
20 20 21 20 19 19 18 15 12 12 15 16 15 13 12 11 9 8 7 4 5 7 7 7 7 5 4 4 4 5 7 8 8 6 6 7 6 6 7 8 9 10
20 21 21 20 20 19 16 13 15 18 19 17 16 14 13 12 10 10 8 4 4 5 6 6 5 4 3 3 4 5 6 7 7 6 7 8 7 8 9 9 10 11
21 21 20 19 19 17 15 17 20 21 19 18 17 15 14 12 10 9 7 5 4 5 5 5 4 3 2 2 3 4 5 5 7 7 8 8 9 10 11 10 11 13
22 21 20 19 18 16 19 22 23 21 20 18 17 16 15 13 11 9 7 6 5 5 5 4 3 1 1 2 3 3 4 5 7 8 9 9 10 11 12 12 13 15
22 20 20 19 17 19 23 25 23 22 20 18 17 17 16 14 12 9 8 7 7 6 4 3 2 1 2 3 3 3 3 5 6 8 9 9 10 11 13 14 15 16
21 21 20 17 18 24 26 25 24 23 21 19 18 17 16 14 12 10 9 8 7 6 4 3 3 2 3 5 5 4 3 3 5 7 8 8 9 11 13 15 17 17
21 21 20 16 21 27 27 25 25 22 21 20 19 17 16 14 12 11 10 8 8 7 6 6 6 5 5 6 5 4 2 3 5 7 9 9 9 11 14 16 17 17
22 21 18 18 25 29 27 25 24 22 21 20 18 17 15 14 13 12 11 10 9 8 8 8 8 6 6 6 5 3 1 4 6 8 10 10 10 11 14 15 16 16
22 20 18 22 27 29 28 25 24 22 22 20 18 17 16 14 13 12 11 11 10 9 10 9 8 7 5 4 3 1 2 4 7 9 10 10 10 11 13 15 14 14
21 19 20 24 26 27 27 25 23 22 21 19 18 17 16 14 13 13 12 11 10 10 10 9 8 6 6 5 4 3 4 5 8 10 11 11 11 12 14 14 13 13
20 19 23 26 25 26 26 24 23 22 20 19 17 16 15 15 14 14 13 12 11 11 10 9 8 8 7 6 6 6 6 7 9 10 11 12 11 12 13 13 12 11
20 21 27 28 26 26 25 24 22 21 19 18 16 15 16 15 15 14 13 12 11 10 10 9 9 9 8 7 7 7 7 8 9 11 11 12 12 12 12 12 11 10
20 25 31 28 26 25 24 23 22 20 19 17 16 16 16 16 15 15 14 13 11 10 10 10 10 9 9 8 9 9 9 9 10 11 11 12 12 12 11 10 9 8
22 30 32 27 25 24 23 23 22 20 18 16 16 17 18 17 16 15 14 13 12 11 11 11 10 11 10 10 10 10 9 9 10 11 11 12 12 11 11 10 9 8
24 31 31 27 26 25 24 23 22 21 19 16 16 18 18 18 17 16 15 14 12 11 11 11 11 12 11 11 10 10 10 10 10 11 11 12 12 11 11 11 10 9
26 33 31 29 28 27 26 25 24 22 20 17 17 18 19 19 18 16 15 14 13 12 11 12 13 13 12 11 10 10 10 10 10 11 11 11 11 11 10 11 11 10
31 35 32 30 30 28 28 27 25 23 21 19 18 21 21 20 18 17 15 14 14 13 12 13 15 15 13 12 11 10 9 9 10 10 11 11 11 11 10 10 11 10
34 34 32 32 31 29 29 27 25 24 21 19 20 22 22 20 18 17 17 15 14 14 13 14 16 16 14 12 11 10 9 9 10 10 11 11 11 11 10 9 10 10
34 32 31 32 30 29 28 27 25 24 21 19 20 21 21 20 18 17 18 17 16 15 15 15 16 16 14 11 11 10 9 9 9 9 10 11 11 11 10 9 9 9
34 31 32 32 30 29 28 26 25 23 21 20 21 21 20 18 17 17 18 18 18 16 16 15 15 14 12 9 8 8 9 9 9 8 10 11 11 11 11 10 10 9

ECMWFNIL_850_spd_135.txt.gz
Wind_Speed
22 21 21 20 19 18 17 18 15 12 10 7 4 3 3 5 6 4 2 2 1 1 2 3 3 4 4 5 5 5 5 5 6 6 6 7 8 9 9 10 10 10
22 22 21 20 19 18 18 17 14 11 9 7 5 4 4 6 6 5 4 3 2 1 2 3 3 3 3 4 4 4 4 5 6 6 6 6 7 8 9 10 10 10
23 22 21 20 19 19 19 16 13 10 10 8 7 5 5 7 6 6 5 3 2 2 3 2 2 2 2 3 4 5 5 6 6 6 6 5 7 8 9 10 10 10
23 21 21 20 20 19 18 15 13 12 11 9 7 7 8 9 7 6 5 3 3 3 2 0 2 2 2 2 4 6 6 6 6 6 5 5 6 8 9 10 10 10
22 21 21 22 21 19 17 15 13 14 12 9 8 10 11 10 8 7 5 3 2 2 1 1 2 1 1 3 4 6 7 6 6 5 4 4 6 7 9 9 10 10
22 22 23 22 20 19 17 15 14 14 12 10 10 12 12 11 9 8 5 2 2 2 2 2 2 0 2 3 5 7 8 7 7 6 5 5 6 7 8 9 10 10
23 24 23 22 20 18 17 15 15 14 12 12 14 14 13 12 10 7 4 3 2 3 2 2 1 1 3 4 6 8 8 7 6 6 5 6 6 6 7 9 10 11
24 23 22 21 20 19 17 16 16 15 15 15 16 15 13 12 9 6 5 4 3 3 2 2 1 1 3 5 7 8 8 7 6 5 6 6 5 6 8 9 10 12
23 23 22 21 21 19 18 17 17 17 18 18 18 16 14 11 8 5 4 4 3 3 3 2 1 1 3 5 7 8 8 6 5 5 5 5 5 6 8 9 10 13
23 22 22 21 20 19 18 18 19 20 21 21 19 16 14 11 8 6 4 3 2 3 3 2 1 2 3 5 6 8 8 6 5 5 5 5 6 7 8 9 10 14
23 22 22 21 20 19 19 19 21 23 24 22 20 17 13 10 9 8 6 4 3 3 3 3 3 3 4 5 6 8 8 7 6 5 5 6 7 8 8 9 10 13
23 22 22 21 19 19 20 21 24 26 25 22 19 16 13 11 9 8 7 5 5 5 5 4 4 4 4 6 7 7 8 7 6 5 5 6 7 8 8 9 11 13
23 22 21 20 18 19 22 25 26 25 23 20 18 14 12 10 10 9 8 7 6 6 7 6 5 4 5 6 6 6 7 7 5 5 5 5 7 8 9 10 11 13
23 22 21 18 18 22 26 27 25 23 21 19 16 14 12 11 10 10 9 8 7 7 8 7 6 5 5 5 4 4 5 6 5 4 4 5 7 9 10 10 11 12
22 21 19 17 20 26 28 26 23 21 20 18 17 15 14 13 12 10 10 9 9 9 9 8 6 5 5 3 2 3 4 5 5 4 5 5 7 8 10 10 10 11
21 21 18 17 24 29 27 24 22 21 20 19 18 17 15 14 13 12 11 10 10 10 10 9 7 5 4 1 1 3 4 5 5 5 5 5 6 8 9 9 10 10
21 20 17 17 27 30 26 23 22 21 20 19 19 18 16 15 14 12 12 11 11 10 10 8 7 5 3 2 2 3 4 5 5 5 5 6 6 7 8 9 9 9
21 20 17 21 30 31 25 23 22 21 20 19 18 18 16 15 14 12 12 12 11 11 10 8 7 5 5 4 4 4 5 5 6 6 6 6 6 6 7 7 7 7
21 19 18 26 32 29 25 24 22 21 20 19 18 17 15 14 13 12 12 12 11 11 10 9 7 6 6 5 5 5 5 6 6 6 6 7 6 6 6 5 5 5
20 18 22 30 31 28 26 24 22 21 19 18 16 15 13 13 13 13 13 12 12 11 10 9 8 8 7 7 7 6 6 6 6 6 6 7 6 6 5 4 4 3
19 19 26 30 29 28 27 25 23 21 18 17 15 13 12 13 13 13 13 13 12 10 9 9 9 9 8 8 7 7 7 6 6 6 6 6 6 6 5 4 3 3
20 22 28 30 30 29 28 25 23 21 18 16 14 13 13 14 14 13 13 13 12 10 9 9 10 10 9 9 8 7 6 6 6 6 6 6 6 6 5 5 4 4
21 24 29 31 31 31 28 26 24 21 19 17 15 13 14 15 15 14 13 12 11 10 9 10 10 11 10 9 9 7 6 6 6 6 6 6 6 6 5 5 5 5
21 25 31 33 33 32 29 26 24 21 19 17 14 12 13 15 16 15 14 12 11 10 9 10 11 12 11 10 10 8 6 6 6 6 6 6 6 5 5 4 4 5
23 28 35 35 33 31 28 25 24 22 20 17 13 11 13 16 17 15 14 13 12 11 10 11 12 13 12 11 10 9 7 6 5 6 6 6 6 5 4 4 4 4
25 32 36 33 30 28 26 24 23 21 19 16 14 12 14 17 17 15 15 14 13 13 12 12 13 13 13 11 10 9 8 6 6 6 6 6 6 5 4 4 3 3

ECMWFNIL_850_spd_138.txt.gz
Wind_Speed
17 16 16 16 19 20 17 14 12 9 8 7 6 7 6 4 3 3 3 2 1 2 2 3 5 6 7 7 7 8 9 9 9 8 8 9 10 11 11 12 12 13
17 17 16 16 18 19 17 14 11 9 8 7 7 8 5 2 4 4 3 2 2 2 2 4 5 6 6 6 7 8 9 9 8 7 8 8 9 10 11 12 12 12
18 18 17 16 17 19 16 14 12 10 9 9 8 7 3 4 6 5 4 3 2 2 2 3 4 4 5 6 7 9 9 8 7 6 7 7 8 10 11 12 12 12
19 18 16 16 17 18 16 14 13 11 10 10 7 5 4 6 7 6 4 3 2 2 2 2 3 3 5 7 8 9 8 7 6 6 6 7 8 10 11 12 12 11
18 18 17 17 18 18 17 15 13 11 10 9 6 4 6 7 7 6 4 2 1 1 1 2 3 4 6 7 9 8 7 6 6 6 6 7 8 10 11 12 11 12
18 19 19 19 18 18 17 15 13 11 10 8 6 5 8 8 7 6 3 2 1 1 2 3 4 5 6 8 9 9 7 6 5 5 6 7 8 10 11 12 12 12
18 19 19 19 19 18 16 14 12 11 10 8 6 7 9 9 7 5 3 1 1 2 3 4 4 5 7 9 9 9 7 6 5 5 6 7 8 10 12 12 12 13
18 19 19 19 19 18 16 14 13 11 10 9 7 8 10 9 7 5 3 1 2 3 3 3 4 6 8 9 10 9 7 5 4 4 6 7 7 10 12 12 12 13
18 18 19 20 19 18 16 15 13 12 11 9 8 10 11 10 7 5 3 2 2 2 3 3 4 6 8 9 9 8 6 4 4 4 5 6 7 10 12 11 11 13
19 19 20 20 19 17 16 15 14 13 12 10 10 11 12 11 8 6 3 2 2 1 2 2 4 5 7 8 8 7 5 4 4 5 5 6 8 10 11 11 12 14
20 20 20 20 18 17 17 16 15 13 12 12 11 12 13 12 10 7 5 3 2 1 0 1 3 4 6 7 7 6 5 4 4 4 5 6 8 9 10 10 12 14
21 21 21 20 19 18 17 16 15 14 14 13 13 14 14 13 10 8 6 4 3 2 1 2 2 3 5 6 5 4 4 4 4 4 5 6 7 8 9 10 12 14
22 21 21 20 19 18 17 17 16 15 15 15 15 16 15 13 11 9 7 5 4 3 3 3 2 3 4 5 3 3 3 3 4 4 5 5 6 7 8 10 12 13
22 22 21 20 19 18 17 17 16 16 16 17 18 17 16 13 11 9 7 6 5 4 4 4 3 3 4 3 2 1 2 3 3 4 4 5 6 7 9 10 11 12
23 22 21 20 19 19 17 16 16 16 17 19 20 19 17 14 12 10 8 7 6 6 6 5 4 4 3 2 1 2 2 2 3 3 4 5 6 7 9 10 11 11
23 22 21 20 20 18 16 15 16 17 19 21 21 19 17 15 13 11 9 8 7 7 7 6 6 5 4 2 2 3 3 2 3 4 4 5 5 7 8 9 10 9
24 23 21 21 20 18 16 16 18 19 20 21 21 19 17 16 14 12 11 9 9 8 8 7 7 6 4 3 3 3 3 3 3 4 5 5 5 6 7 8 9 9
24 23 21 21 20 17 16 17 19 21 22 22 21 19 18 16 15 13 12 11 10 9 9 8 8 6 5 4 4 4 4 4 4 4 5 5 6 6 7 7 8 8
25 23 21 21 20 16 16 19 21 22 23 22 20 19 18 16 15 14 12 12 11 10 9 9 8 7 6 5 5 5 5 5 5 4 5 5 5 6 6 6 6 6
26 24 22 22 20 17 18 21 23 24 23 21 20 19 18 17 15 14 13 13 12 11 10 9 8 7 7 7 6 7 7 6 5 5 5 5 5 5 5 5 5 5
26 24 23 22 20 19 21 24 25 25 23 21 19 18 17 16 15 14 14 13 13 12 10 9 9 8 8 8 8 8 8 7 6 5 5 4 4 4 4 4 3 3
26 24 23 22 20 20 23 27 26 24 23 21 19 18 17 16 14 14 14 14 13 12 11 10 9 9 10 9 9 9 8 7 6 5 5 4 4 4 3 3 3 3
25 23 22 20 18 20 24 25 23 22 21 19 19 18 16 15 14 14 14 14 13 12 11 9 9 11 11 10 10 9 8 7 6 5 5 4 3 3 3 3 3 3
25 24 23 18 16 19 23 23 21 20 19 18 17 15 14 13 14 15 15 14 12 11 10 9 10 12 12 12 11 9 8 6 6 5 4 4 3 3 3 3 3 3
26 25 23 18 15 19 23 24 23 21 19 18 16 14 12 12 15 16 15 14 13 11 10 9 10 13 13 12 11 10 8 6 5 5 4 3 3 3 3 3 3 3
27 25 22 18 19 23 25 25 24 22 20 19 17 14 11 12 15 16 16 15 14 12 11 10 11 13 13 13 11 9 8 7 5 5 4 3 3 3 2 2 3 3

ECMWFNIL_850_spd_141.txt.gz
Wind_Speed
12 13 12 11 11 11 9 7 6 7 6 5 6 5 5 6 6 5 3 2 1 2 2 3 4 5 7 7 7 9 10 10 10 10 10 10 12 13 13 13 13 14
13 14 12 10 12 13 11 9 7 8 7 6 6 5 5 6 6 4 4 2 1 2 2 3 4 5 6 7 8 9 9 10 10 9 10 11 12 12 12 13 14 14
15 15 12 11 12 13 12 11 9 9 8 7 5 4 5 5 5 5 4 2 1 2 2 2 4 5 7 7 8 8 9 9 9 9 10 10 11 11 12 13 13 13
16 13 13 14 14 13 13 12 11 9 8 7 5 5 5 5 5 5 3 2 1 1 1 3 4 6 7 7 7 8 8 8 8 9 10 10 10 11 13 13 12 13
15 13 14 16 16 15 13 12 10 9 8 6 4 4 4 5 5 4 3 2 2 2 3 4 5 6 6 6 7 8 8 8 9 10 10 9 10 12 13 13 12 13
15 15 17 17 16 16 14 12 10 9 8 6 4 5 4 5 6 4 3 2 3 4 4 4 5 6 6 7 7 8 8 8 9 10 10 9 11 12 13 12 12 14
17 18 19 18 17 16 14 12 11 10 8 6 5 5 4 6 6 5 3 3 5 5 5 5 6 7 7 7 8 8 8 9 9 10 9 10 11 12 12 12 12 14
18 19 20 19 18 16 14 13 12 10 9 7 6 5 4 7 7 5 4 5 6 6 5 5 6 7 7 7 7 7 8 8 9 9 9 10 11 11 12 11 12 13
19 20 20 19 18 17 15 15 13 11 9 8 6 4 6 8 8 6 5 6 7 6 5 5 6 8 8 7 7 7 8 8 8 9 9 9 10 11 12 11 12 13
19 19 20 19 18 17 16 16 14 12 10 9 7 5 7 10 9 8 7 7 8 6 5 5 6 7 7 6 6 7 7 7 7 8 9 9 10 11 11 11 12 13
20 20 20 20 19 18 18 16 15 12 10 9 8 6 8 11 11 9 8 7 7 6 5 5 5 6 6 5 5 6 6 6 7 8 8 9 10 10 11 11 12 13
22 22 21 21 20 19 18 17 15 13 11 10 8 7 9 12 12 10 8 7 7 6 5 4 4 5 5 4 4 5 6 6 6 7 8 9 9 10 10 11 13 14
22 22 21 21 19 18 18 17 15 13 11 10 8 8 11 13 13 11 9 8 6 5 5 4 3 3 4 3 3 5 5 5 6 6 7 8 9 10 10 11 13 14
23 22 21 20 19 19 18 17 15 13 11 10 9 9 12 14 14 11 10 8 7 6 5 4 3 2 2 2 2 4 5 5 6 6 7 7 8 9 10 10 12 13
22 22 21 20 19 19 18 16 15 13 12 12 12 12 13 15 15 12 10 9 7 6 5 4 3 2 1 1 1 3 5 6 6 7 7 7 7 8 9 10 10 11
22 22 22 21 20 20 19 16 14 13 13 14 15 15 15 16 16 14 11 8 7 6 6 5 4 2 1 1 2 3 5 6 6 7 7 7 7 7 8 9 9 10
22 23 23 22 21 20 19 16 14 13 14 15 16 17 18 18 17 15 12 9 7 6 5 5 5 3 2 2 2 3 5 6 6 6 7 7 7 6 7 8 8 8
23 24 25 24 23 20 19 17 14 13 15 17 18 19 19 19 18 15 13 10 8 7 6 6 6 5 3 3 3 4 6 7 7 7 7 7 7 7 7 7 8 8
26 26 26 25 22 20 18 15 13 14 16 17 18 20 20 19 18 15 13 11 9 8 8 7 7 6 4 4 4 5 7 8 8 7 7 7 7 7 6 7 7 7
26 25 25 24 21 19 17 14 12 13 16 17 18 20 20 19 18 15 13 12 10 9 9 9 9 7 6 5 6 7 8 9 9 9 8 7 7 7 6 6 6 7
26 26 25 24 21 18 16 13 11 13 16 17 19 20 20 19 17 15 14 12 11 11 11 11 10 8 7 7 7 8 9 10 10 9 9 8 8 7 7 6 5 6
27 28 26 24 20 18 16 14 12 13 16 19 21 21 20 19 17 16 14 13 12 12 12 12 11 9 8 8 8 9 10 11 11 10 9 9 8 7 7 6 5 6
26 28 26 24 21 18 16 14 13 15 18 20 22 22 20 19 17 16 14 13 13 13 13 12 11 10 9 9 10 11 11 11 11 11 10 9 8 7 7 6 6 6
25 27 26 25 21 17 15 14 14 17 19 20 21 20 19 18 17 16 15 14 14 13 13 12 11 10 10 11 11 12 12 12 11 11 10 9 8 8 7 7 6 6
24 24 25 24 21 17 16 15 15 19 20 19 20 19 18 17 16 16 15 16 15 14 13 12 12 11 11 12 13 14 14 13 12 11 10 9 9 8 7 7 7 6
24 20 21 22 20 17 16 16 17 21 21 20 20 19 17 15 15 15 16 16 16 15 14 13 13 12 12 13 15 15 15 14 12 11 10 9 9 8 7 7 7 7

ECMWFNIL_850_spd_144.txt.gz
Wind_Speed
19 16 18 19 18 17 15 13 11 12 10 8 7 7 5 3 3 4 5 7 7 6 6 6 6 6 5 6 7 7 7 7 7 8 9 9 10 11 12 13 14 15
21 18 18 18 16 15 14 12 12 13 10 8 7 6 4 2 3 6 7 7 7 6 6 6 7 6 5 7 7 6 7 7 8 9 10 10 10 12 13 14 15 16
22 19 19 17 16 17 16 14 14 13 10 8 7 5 3 3 6 8 8 8 7 6 7 7 7 6 6 7 6 7 7 8 9 10 10 10 11 12 13 14 15 16
24 21 19 18 18 19 18 17 16 14 10 8 7 4 3 5 8 9 8 8 7 7 8 8 8 7 6 6 6 7 8 9 10 11 10 10 11 13 14 13 15 17
23 22 21 20 20 21 20 19 16 14 11 8 7 5 4 6 10 10 8 8 8 8 9 9 8 7 6 7 7 8 9 10 11 11 11 11 12 13 14 14 15 16
23 21 22 22 21 21 22 20 16 14 11 8 7 5 5 9 10 10 8 8 9 10 10 9 8 7 6 7 8 9 10 10 11 11 11 11 12 13 13 14 15 15
23 22 23 22 22 23 22 20 17 14 11 9 8 6 7 11 11 10 9 9 10 11 10 9 8 7 7 8 9 10 10 11 11 11 11 12 13 13 13 14 14 14
23 24 24 23 23 24 22 20 18 14 12 10 8 7 9 12 11 10 10 10 11 11 10 9 8 7 8 9 10 10 10 11 12 11 11 12 13 12 12 13 14 14
24 26 24 23 23 24 23 20 18 15 13 11 8 8 11 12 12 11 10 11 12 11 11 9 8 8 8 9 10 10 10 11 11 11 11 12 13 12 12 12 13 14
26 26 24 23 25 25 23 21 19 16 14 11 7 8 12 13 12 12 11 12 13 12 11 9 8 8 8 9 10 11 11 11 11 11 12 12 13 12 12 12 13 13
26 25 24 25 26 26 24 21 19 17 15 12 9 9 12 13 13 13 12 13 13 12 10 9 8 8 8 9 10 11 11 11 11 11 12 12 12 12 12 12 13 13
26 25 25 27 27 26 23 21 20 18 15 12 10 10 12 13 14 14 13 14 13 12 11 9 8 7 8 9 9 10 11 11 11 12 12 13 13 12 12 12 12 13
23 24 26 27 27 25 23 21 21 18 15 13 10 10 12 14 14 14 14 14 14 13 11 9 8 7 8 9 9 10 11 11 11 12 12 13 13 13 13 12 12 13
20 23 27 27 25 24 22 21 21 19 16 13 11 11 13 14 14 15 14 13 14 13 11 10 8 7 7 8 9 10 11 11 11 12 12 13 14 13 13 13 12 12
23 26 28 27 25 24 22 21 21 19 16 14 11 11 13 14 14 14 13 13 14 13 11 10 9 7 7 8 9 10 11 12 12 12 12 13 13 14 13 13 12 11
26 29 29 27 27 26 23 22 22 19 16 14 13 12 14 15 14 14 13 13 13 13 12 10 9 8 7 8 9 10 11 12 12 13 13 12 13 13 13 12 11 11
27 29 30 28 26 24 22 23 22 19 16 15 15 15 15 16 15 15 14 13 13 13 12 11 10 8 8 8 9 10 11 12 12 13 13 12 12 12 13 12 11 10
28 29 29 27 25 24 23 23 22 19 17 16 17 17 17 18 18 17 15 14 14 13 12 11 11 9 8 8 9 11 12 13 13 13 13 12 11 11 11 12 11 10
28 27 26 25 24 24 24 24 22 19 17 17 18 18 18 19 20 19 17 16 15 14 13 13 12 10 9 9 10 11 13 14 13 13 13 12 11 11 11 12 11 10
26 25 24 24 24 24 25 25 22 18 16 16 17 18 19 21 22 21 20 17 16 14 14 14 13 11 10 9 10 12 13 14 14 13 14 13 13 12 12 12 12 11
24 25 25 24 25 25 26 25 21 17 15 16 17 19 21 22 22 23 21 19 17 15 14 15 13 12 11 10 11 12 13 15 15 14 14 14 14 13 12 12 13 12
25 26 26 25 27 28 28 25 21 16 13 14 18 21 22 23 24 24 22 20 18 17 15 15 14 13 12 11 12 13 14 15 16 15 15 14 14 14 12 12 13 12
26 28 28 27 28 30 29 25 20 16 13 15 20 24 25 25 26 25 23 21 20 18 17 16 15 15 14 12 13 14 15 16 16 16 15 15 14 13 12 12 13 13
26 28 30 28 26 28 29 24 19 17 14 16 21 24 25 26 26 25 23 21 20 18 18 17 16 15 14 13 14 15 16 17 17 16 16 15 14 14 12 12 12 12
27 27 28 27 26 29 29 24 19 17 14 16 21 24 25 27 27 26 24 22 21 20 19 17 16 16 15 14 15 15 17 18 16 15 16 16 14 14 13 12 11 11
30 28 26 28 29 31 29 23 19 16 14 18 23 25 27 28 26 25 24 22 22 21 19 18 18 16 15 15 15 16 18 19 17 15 16 16 15 14 13 12 12 11